K5MJM Weather Reports


time (UTC)temp
C
wind
direction
speed
KPH
gust
KPH
rain 1hr
cm
rain 24hr
cm
rain mn
cm
humidity
%
barometer
mb
20260507042918 10 0.0 0.0 0.00 0.00 0.00 60 1020.9
20260507041917 10 0.0 0.0 0.00 0.00 0.00 60 1020.8
20260507040918 10 270 6.4 9.7 0.00 0.00 0.00 59 1020.5
20260507035918 10 0.0 1.6 0.00 0.00 0.00 59 1019.8
20260507034928 10 0.0 0.0 0.00 0.00 0.00 58 1019.5
20260507033918 11 0.0 0.0 0.00 0.00 0.00 57 1019.7
20260507032938 11 0.0 0.0 0.00 0.00 0.00 55 1020.0
20260507031918 11 0.0 0.0 0.00 0.00 0.00 55 1019.9
20260507030918 12 0.0 0.0 0.00 0.00 0.00 54 1019.8
20260507025917 12 0.0 1.6 0.00 0.00 0.00 54 1019.5
20260507024918 12 0 1.6 3.2 0.00 0.00 0.00 53 1019.4
20260507023918 12 45 1.6 4.8 0.00 0.00 0.00 52 1019.2
20260507022917 12 45 3.2 4.8 0.00 0.00 0.00 51 1019.1
20260507021919 13 15 4.8 0.0 0.00 0.00 0.00 50 1019.2
20260507020917 13 23 6.4 8.0 0.00 0.00 0.00 49 1018.9
20260507015918 13 23 6.4 8.0 0.00 0.00 0.00 49 1018.8
20260507014918 13 23 6.4 11.3 0.00 0.00 0.00 48 1018.7
20260507013918 14 23 4.8 8.0 0.00 0.00 0.00 47 1018.6
20260507012918 15 23 8.0 11.3 0.00 0.00 0.00 46 1018.5
20260507011918 15 45 6.4 9.7 0.00 0.00 0.00 46 1018.2
20260507010917 15 23 6.4 11.3 0.00 0.00 0.00 45 1018.3
20260507005918 15 23 6.4 9.7 0.00 0.00 0.00 45 1018.3
20260507004918 16 23 8.0 12.9 0.00 0.00 0.00 45 1018.2
20260507003917 16 23 4.8 11.3 0.00 0.00 0.00 45 1018.3
20260507002938 16 23 6.4 11.3 0.00 0.00 0.00 44 1018.2
20260507001918 16 0 4.8 9.7 0.00 0.00 0.00 44 1018.2
20260507000917 17 45 8.0 12.9 0.00 0.00 0.00 42 1018.1
20260506235938 17 0 8.0 17.7 0.00 0.00 0.00 43 1018.1
20260506234918 17 23 14.5 17.7 0.00 0.00 0.00 42 1018.1
20260506233918 17 45 6.4 12.9 0.00 0.00 0.00 40 1018.0
20260506232918 18 45 8.0 11.3 0.00 0.00 0.00 41 1017.8
20260506231918 18 0 4.8 8.0 0.00 0.00 0.00 42 1017.7
20260506230917 18 23 11.3 16.1 0.00 0.00 0.00 41 1017.7
20260506225918 18 23 4.8 8.0 0.00 0.00 0.00 39 1017.7
20260506224918 18 90 9.7 17.7 0.00 0.00 0.00 40 1017.6
20260506223938 18 90 14.5 19.3 0.00 0.00 0.00 40 1017.4
20260506222917 19 23 9.7 14.5 0.00 0.00 0.00 39 1017.4
20260506221917 18 0 9.7 16.1 0.00 0.00 0.00 41 1017.1
20260506220938 18 45 6.4 12.9 0.00 0.00 0.00 41 1017.1
20260506215939 18 45 12.9 19.3 0.00 0.00 0.00 41 1017.2
20260506214918 18 68 11.3 17.7 0.00 0.00 0.00 41 1017.2
20260506213918 18 0 16.1 22.5 0.00 0.00 0.00 42 1017.4
20260506212938 18 45 9.7 16.1 0.00 0.00 0.00 44 1017.4
20260506211918 18 0 14.5 19.3 0.00 0.00 0.00 42 1017.6
20260506210917 18 0 14.5 19.3 0.00 0.00 0.00 44 1017.8
20260506205918 17 23 16.1 20.9 0.00 0.00 0.00 43 1017.8
20260506204937 18 338 9.7 19.3 0.00 0.00 0.00 43 1017.9
20260506203959 18 90 14.5 24.1 0.00 0.00 0.00 46 1018.0
20260506202918 17 23 14.5 19.3 0.00 0.00 0.00 44 1018.0
20260506201917 17 23 8.0 12.9 0.00 0.00 0.00 47 1018.1
20260506200917 17 0 12.9 22.5 0.00 0.00 0.00 48 1018.1
20260506195918 17 23 12.9 17.7 0.00 0.00 0.00 46 1018.2
20260506194918 17 23 16.1 24.1 0.00 0.00 0.00 47 1018.2
20260506193918 16 338 6.4 12.9 0.00 0.00 0.00 49 1018.1
20260506192917 16 45 9.7 14.5 0.00 0.00 0.00 48 1018.4
20260506192018 16 23 6.4 8.0 0.00 0.00 0.00 48 1018.5
20260506190917 15 23 16.1 25.7 0.00 0.00 0.00 49 1018.4
20260506185938 15 23 16.1 24.1 0.00 0.00 0.00 49 1018.5
20260506184917 15 45 6.4 9.7 0.00 0.00 0.00 48 1018.7
20260506183917 16 45 14.5 22.5 0.00 0.00 0.00 49 1018.8
20260506182919 16 0 8.0 12.9 0.00 0.00 0.00 49 1018.9
20260506181938 16 90 9.7 14.5 0.00 0.00 0.00 49 1019.0
20260506180918 16 68 8.0 12.9 0.00 0.00 0.00 50 1019.1
20260506175918 16 68 14.5 22.5 0.00 0.00 0.00 47 1019.2
20260506174919 17 68 6.4 12.9 0.00 0.00 0.00 47 1019.2
20260506173938 16 90 14.5 24.1 0.00 0.00 0.00 50 1019.2
20260506172938 15 68 16.1 22.5 0.00 0.00 0.00 50 1019.4
20260506171918 15 45 16.1 19.3 0.00 0.00 0.00 49 1019.3
20260506170917 15 68 12.9 19.3 0.00 0.00 0.00 50 1019.4
20260506165919 15 45 12.9 19.3 0.00 0.00 0.00 48 1019.4
20260506164917 15 45 14.5 22.5 0.00 0.00 0.00 48 1019.2
20260506163919 15 68 19.3 27.4 0.00 0.00 0.00 49 1019.5
20260506162918 15 90 20.9 33.8 0.00 0.00 0.00 50 1019.5
20260506161919 14 45 11.3 20.9 0.00 0.00 0.00 51 1019.4
20260506160918 13 68 24.1 33.8 0.00 0.00 0.00 51 1019.5
20260506155918 13 45 12.9 20.9 0.00 0.00 0.00 52 1019.3
20260506154917 13 45 14.5 22.5 0.00 0.00 0.00 53 1019.3
20260506153938 13 68 12.9 25.7 0.00 0.00 0.00 54 1019.3
20260506152919 12 90 14.5 24.1 0.00 0.00 0.00 57 1018.9
20260506151919 12 23 14.5 24.1 0.00 0.00 0.00 57 1018.8
20260506150958 11 23 12.9 19.3 0.00 0.00 0.00 60 1018.9
20260506145939 11 45 20.9 27.4 0.00 0.00 0.00 60 1018.8
20260506144917 11 45 12.9 19.3 0.00 0.00 0.00 63 1018.7
20260506143920 10 23 14.5 22.5 0.00 0.00 0.00 64 1018.5
20260506142918 10 23 14.5 19.3 0.00 0.00 0.00 65 1018.2
20260506141917 10 45 12.9 20.9 0.00 0.00 0.00 66 1018.2
20260506140919 10 45 11.3 19.3 0.00 0.00 0.00 67 1018.3
20260506135918 9 0 17.7 25.7 0.00 0.00 0.00 67 1018.3
20260506134919 9 23 16.1 20.9 0.00 0.00 0.00 68 1018.2
20260506133918 9 23 17.7 24.1 0.00 0.00 0.00 68 1018.4
20260506132920 9 0 19.3 29.0 0.00 0.00 0.00 69 1018.4
20260506131918 9 0 11.3 19.3 0.00 0.00 0.00 70 1018.4
20260506130919 9 0 12.9 16.1 0.00 0.00 0.00 70 1018.5
20260506125919 9 23 12.9 19.3 0.00 0.00 0.00 69 1018.3
20260506124918 8 23 12.9 16.1 0.00 0.00 0.00 70 1018.2
20260506123919 8 23 12.9 14.5 0.00 0.00 0.00 70 1018.0
20260506122917 8 23 12.9 16.1 0.00 0.00 0.00 70 1017.8
20260506121938 8 23 9.7 14.5 0.00 0.00 0.00 70 1017.5
20260506120917 8 23 9.7 14.5 0.00 0.00 0.00 70 1017.2
20260506115919 8 0 9.7 17.7 0.00 0.00 0.00 70 1017.0
20260506114939 8 23 14.5 17.7 0.00 0.00 0.00 70 1017.0
20260506113919 8 23 8.0 12.9 0.00 0.00 0.00 70 1017.0
20260506112917 8 0 9.7 16.1 0.00 0.00 0.00 70 1016.8
20260506111919 8 23 9.7 14.5 0.00 0.00 0.00 70 1016.7
20260506110917 8 23 8.0 12.9 0.00 0.00 0.00 69 1016.3
20260506105919 8 23 9.7 16.1 0.00 0.00 0.00 69 1016.5
20260506104918 8 23 11.3 16.1 0.00 0.00 0.00 68 1016.4
20260506103919 8 45 12.9 20.9 0.00 0.00 0.00 68 1016.9
20260506102919 9 0 9.7 14.5 0.00 0.00 0.00 68 1017.5
20260506101919 9 0 14.5 17.7 0.00 0.00 0.00 68 1017.1
20260506100919 9 23 8.0 12.9 0.00 0.00 0.00 67 1017.0
20260506095917 9 23 6.4 9.7 0.00 0.00 0.00 67 1016.9
20260506094919 9 23 11.3 17.7 0.00 0.00 0.00 67 1016.7
20260506093918 9 0 11.3 16.1 0.00 0.00 0.00 67 1016.4
20260506092919 9 0 11.3 14.5 0.00 0.00 0.00 67 1016.1
20260506091919 9 23 11.3 14.5 0.00 0.00 0.00 66 1015.7
20260506090919 9 23 9.7 16.1 0.00 0.00 0.00 66 1015.8
20260506085919 9 0 14.5 17.7 0.00 0.00 0.00 66 1015.5
20260506084917 9 0 14.5 20.9 0.00 0.00 0.00 65 1015.6
20260506083919 9 0 14.5 19.3 0.00 0.00 0.00 64 1015.4
20260506082919 9 0 17.7 20.9 0.00 0.00 0.00 64 1015.2
20260506081918 9 0 12.9 16.1 0.00 0.00 0.00 64 1014.9
20260506080919 9 0 16.1 20.9 0.00 0.00 0.00 64 1014.7
20260506072919 9 23 6.4 8.0 0.00 0.00 0.00 64 1014.3
20260506071920 9 23 12.9 19.3 0.00 0.00 0.00 63 1014.1
20260506070919 9 45 6.4 11.3 0.00 0.00 0.00 63 1014.0
20260506062000 9 0 11.3 17.7 0.00 0.00 0.00 63 1014.3
20260506060919 9 23 8.0 16.1 0.00 0.00 0.00 63 1014.3
20260506050919 9 45 14.5 17.7 0.00 0.00 0.00 61 1014.0
20260506044918 9 23 9.7 14.5 0.00 0.00 0.00 62 1013.7
20260506043918 9 45 9.7 14.5 0.00 0.00 0.00 63 1013.9